Regional Weather Roundup
Issued by NWS

Home | Current Version | Previous Version | Graphics & Text | Print | Product List | Glossary On
Versions: 1 2 3 4 5 6 7 8 9 10 11 12 13 14 15 16 17 18 19 20 21 22 23 24 25 26 27 28 29 30 31 32 33 34 35 36 37 38 39 40 41 42 43 44 45 46 47 48 49 50
490
ASUS45 KSLC 150610
RWRUT

UTAH REGIONAL WEATHER ROUNDUP
NATIONAL WEATHER SERVICE SALT LAKE CITY UT
1100 PM MST THU DEC 14 2017

UTZ001>011-023>025-150700-

NORTHERN UTAH

CITY           SKY/WX    TMP DP  RH WIND       PRES   REMARKS
BRIGHAM CITY   CLEAR     25  21  84 CALM      30.44R
HILL AFB       CLEAR     27  22  81 SE5       30.41S WCI  22
LOGAN          CLEAR     17  11  77 W3        30.43R
OGDEN          CLEAR     25  20  81 S8        30.41F WCI  16
SALT LAKE CITY PTCLDY    31  25  78 S8        30.41F WCI  23
TOOELE VALLEY  PTCLDY    27  23  86 S8        30.42S WCI  18
WENDOVER       PTCLDY    19  15  84 CALM      30.42S
HEBER CITY       N/A     18  12  79 CALM      30.39S
WEST JORDAN    PTCLDY    26  22  88 S8        30.41F WCI  17

$$

UTZ011>015-024>027-150700-

CENTRAL/NORTHEAST UTAH

CITY           SKY/WX    TMP DP  RH WIND       PRES   REMARKS
PROVO AIRPORT  PTCLDY    18  16  92 CALM      30.45F FOG
MOAB/CANYONLAN PTCLDY    32  15  49 CALM      30.34S
DELTA          PTCLDY    16  12  86 CALM      30.44S
PRICE          CLEAR     26  11  52 NE12      30.34S WCI  16
ROOSEVELT      CLOUDY    19  12  73 W5        30.39R WCI  13
VERNAL         CLOUDY    19  13  77 W3        30.36S

$$

UTZ013>016-019>022-027-150700-

SOUTHERN UTAH

CITY           SKY/WX    TMP DP  RH WIND       PRES   REMARKS
BRYCE CANYON   CLEAR     11   7  84 CALM      30.39R
CEDAR CITY     PTCLDY    21  16  81 CALM      30.41R
MILFORD        CLEAR     21  15  78 W12       30.43R WCI   9
ST GEORGE      PTCLDY    43  20  39 S3        30.36R
HANKSVILLE     PTCLDY    27  10  50 NW3       30.38S
BLANDING         N/A     31   8  38 NW5       30.39S WCI  26

$$

REGIONAL REPORTS     COLORADO/ARIZONA

CITY           SKY/WX    TMP DP  RH WIND       PRES   REMARKS
CRAIG, CO      CLOUDY     5  -1  76 CALM      30.37S
GRAND JUNCTION CLOUDY    28  14  55 S5        30.37R WCI  23
RIFLE, CO      CLOUDY    20   9  62 SE7       30.40R WCI  11
MONTROSE, CO   CLOUDY    25  17  72 E9        30.40S WCI  15
CORTEZ, CO     CLOUDY    24   7  48 SE5       30.29S WCI  18
COLORADO CITY    N/A     25  14  63 CALM      30.37R
PAGE, AZ       PTCLDY    41  11  29 S5        30.33R
GRAND CANYON   PTCLDY    32  -1  24 NE10      30.34S WCI  24
KINGMAN, AZ    CLEAR     41  16  36 E5        30.27R
FLAGSTAFF, AZ  CLEAR     34   2  25 NE14      30.31R WCI  25

$$

REGIONAL REPORTS    NEVADA/IDAHO/WYOMING

CITY           SKY/WX    TMP DP  RH WIND       PRES   REMARKS
LAS VEGAS, NV  PTCLDY    52  21  29 NW7       30.29R
ELY, NY        PTCLDY    16   7  67 S12       30.41S WCI   3
ELKO, NV       PTCLDY    22  18  85 CALM      30.37F
POCATELLO, ID  FOG       22  20  92 NE6       30.42F VSB 3/4 WCI  14
BURLEY, ID     FOG       24  20  84 NE9       30.39S VSB 1/2 WCI  14
FORT BRIDGER,    N/A     32   2  27 W15       30.32S WCI  22
EVANSTON, WY   CLOUDY    22  16  78 SW13      30.33S WCI  10
ROCK SPRINGS,  CLOUDY    25  11  55 W10       30.27S WCI  15

$$




USA.gov is the U.S. government's official web portal to all federal, state and local government web resources and services.